Home   Weather   Halmstad   Past weeks

Flag for Sweden Past Weather in Halmstad, Sweden — Yesterday and Last 2 Weeks

Now
45 °F

Fog.


Feels Like: 38 °F
Forecast: 39 / 45 °F
Wind: 13 mph from Northwest

Location: Halmstad Swedish Air Force Base

Current Time: Dec 10, 2016 at 11:36:26 pm

Latest Report: Dec 10, 2016 at 11:20 pm


Visibility: 4 mi

Pressure: 29.83 "Hg

Humidity: 93%

Dew Point: 43 °F

Location of HalmstadLocation

Past Weather in Halmstad — Graph

°F

Halmstad Temperature Yesterday

Maximum temperature yesterday: 46 °F (at 12:20 am)
Minimum temperature yesterday: 43 °F (at 4:20 am)
Average temperature yesterday: 45 °F

High & Low Weather Summary for the Past Weeks

 TemperatureHumidityPressure
High48 °F (Dec 8, 6:50 am)100% (Nov 26, 7:20 am)30.48 "Hg (Nov 26, 7:20 am)
Low21 °F (Dec 3, 6:50 am)48% (Nov 27, 1:20 pm)29.53 "Hg (Dec 1, 4:50 pm)
Average39 °F85%30.05 "Hg
* Reported Nov 25 10:20 pm — Dec 10 10:20 pm, Halmstad, Weather by CustomWeather, © 2016

Note: Actual official high and low records may vary slightly from our data, if they occured in-between our weather recording intervals... More about our weather records

Advertising

Halmstad Weather History for the Previous 24 Hours

Scroll right to see more
 ConditionsComfort  
Time TempWeatherWind HumidityBarometerVisibility
10:20 pm
Sat, Dec 10
45 °FFog.13 mph93%29.83 "Hg4 mi
9:50 pm45 °FFog.10 mph93%29.83 "Hg4 mi
9:20 pm45 °FFog.15 mph93%29.83 "Hg4 mi
8:50 pm45 °FFog.13 mph93%29.83 "Hg4 mi
8:20 pm45 °FFog.14 mph93%29.83 "Hg5 mi
7:50 pm45 °FFog.15 mph93%29.83 "Hg5 mi
7:20 pm45 °FFog.16 mph93%29.83 "Hg6 mi
6:50 pm45 °FFog.15 mph93%29.83 "Hg6 mi
6:20 pm45 °FFog.16 mph93%29.83 "Hg6 mi
5:50 pm45 °FPassing clouds.17 mph93%29.83 "Hg6 mi
5:20 pm45 °FQuite cool.17 mph93%29.83 "Hg6 mi
4:50 pm45 °FFog.17 mph93%29.83 "Hg5 mi
4:20 pm46 °FFog.18 mph93%29.83 "Hg6 mi
3:50 pm46 °FLow clouds.17 mph93%29.83 "Hg6 mi
3:20 pm46 °FOvercast.18 mph93%29.83 "HgN/A
2:50 pm46 °FOvercast.17 mph93%29.83 "HgN/A
2:20 pm46 °FFog.16 mph93%29.83 "Hg5 mi
1:50 pm46 °FFog.15 mph93%29.83 "Hg6 mi
1:20 pm46 °FFog.14 mph100%29.83 "Hg3 mi
12:50 pm46 °FFog.15 mph93%29.83 "Hg4 mi
12:20 pm46 °FFog.13 mph93%29.83 "Hg4 mi
11:50 am46 °FFog.14 mph100%29.83 "Hg2 mi
11:20 am46 °FFog.10 mph93%29.83 "Hg3 mi
10:50 am46 °FFog.12 mph100%29.83 "Hg3 mi
10:20 am46 °FFog.15 mph93%29.83 "Hg2 mi
9:50 am46 °FFog.16 mph100%29.83 "Hg3 mi
9:20 am46 °FFog.18 mph100%29.80 "Hg4 mi
8:50 am46 °FFog.16 mph100%29.80 "Hg3 mi
8:20 am46 °FFog.15 mph100%29.80 "Hg2 mi
7:50 am46 °FFog.16 mph100%29.80 "Hg2 mi
7:20 am46 °FFog.14 mph100%29.80 "Hg2 mi
6:50 am46 °FFog.13 mph100%29.80 "Hg1 mi
6:20 am46 °FFog.14 mph100%29.80 "Hg1 mi
5:50 am46 °FFog.14 mph100%29.80 "Hg2 mi
5:20 am46 °FFog.14 mph100%29.80 "Hg3 mi
4:50 am46 °FFog.17 mph100%29.80 "Hg2 mi
4:20 am46 °FFog.17 mph100%29.80 "Hg1 mi
3:50 am46 °FFog.17 mph100%29.80 "Hg1 mi
3:20 am46 °FFog.15 mph100%29.83 "Hg3 mi
2:50 am46 °FLight rain. Low clouds.14 mph93%29.83 "Hg2 mi
2:20 am45 °FRain. Low clouds.12 mph100%29.83 "Hg3 mi
1:50 am45 °FLight rain. Low clouds.12 mph100%29.83 "Hg4 mi
1:20 am45 °FRain. Low clouds.14 mph100%29.86 "Hg4 mi
12:50 am45 °FRain. Low clouds.13 mph100%29.86 "Hg4 mi
12:20 am45 °FRain. Low clouds.13 mph100%29.89 "Hg3 mi
11:50 pm
Fri, Dec 9
45 °FRain. Low clouds.10 mph100%29.92 "Hg3 mi
11:20 pm45 °FRain. Low clouds.9 mph93%29.92 "Hg2 mi
Weather by CustomWeather, © 2016

See weather overviewHow to use our weather pages